Flag for U.S.A. Weather past 2 weeks in Pittsburgh, Pennsylvania, U.S.A.

Now
70 °F

Sunny.


Feels Like: 76 °F
Forecast: 65 / 81 °F
Wind: 7 mph from West

Location: Allegheny County Airport

Current Time: Aug 4, 2015 at 10:51:19 AM

Latest Report: Aug 4, 2015 at 9:53 AM


Visibility: 10 mi

Pressure: 29.98 "Hg

Humidity: 59%

Dew point: 55 °F

Location of PittsburghLocation

Historic Weather in Pittsburgh — Graph

°F

Pittsburgh temperature yesterday

Maximum temperature yesterday: 82 °F (at 2:53 PM)
Minimum temperature yesterday: 66 °F (at 6:53 AM)
Average temperature yesterday: 71 °F

Past Weeks' High & Low Weather Summary

 TemperatureHumidityPressure
High90 °F (Jul 29, 4:53 PM)87% (Jul 21, 2:53 AM)30.04 "Hg (Jul 21, 2:53 AM)
Low60 °F (Jul 22, 4:53 AM)28% (Jul 30, 12:53 PM)29.71 "Hg (Jul 21, 4:53 AM)
Average75 °F56%29.93 "Hg
* Reported Jul 20 9:53 AM — Aug 4 9:53 AM, Pittsburgh, Weather by CustomWeather, © 2015

Note: Actual official high and low records may vary slightly from our data, if they occured in-between our weather recording intervals... More about our weather records

Advertising

Pittsburgh weather history for previous 24 hours

 ConditionsComfort  
Time TempWeatherWind HumidityBarometerVisibility
9:53 AM
Tue, Aug 4
70 °FSunny.7 mph59%29.98 "Hg10 mi
8:53 AM67 °FSunny.8 mph66%29.97 "Hg10 mi
7:53 AM65 °FSunny.9 mph76%29.96 "Hg10 mi
6:53 AM64 °FClear.8 mph81%29.95 "Hg10 mi
5:53 AM64 °FPassing clouds.9 mph84%29.93 "Hg9 mi
4:53 AM63 °FFog.7 mph87%29.90 "Hg4 mi
3:53 AM65 °FClear.6 mph85%29.88 "Hg10 mi
2:53 AM65 °FClear.5 mph87%29.86 "Hg9 mi
1:53 AM66 °FClear.3 mph81%29.86 "Hg7 mi
12:53 AM68 °FOvercast.10 mph84%29.86 "Hg10 mi
11:56 PM
Mon, Aug 3
67 °FLight rain. Fog.No wind87%29.86 "Hg3 mi
10:53 PM66 °FFog.N/A87%29.87 "Hg2 mi
9:53 PM67 °FPassing clouds.6 mph87%29.84 "Hg10 mi
9:00 PM68 °FBroken clouds.7 mph84%29.83 "Hg10 mi
7:53 PM68 °FBroken clouds.10 mph87%29.84 "Hg4 mi
6:53 PM70 °FPartly sunny.7 mph81%29.83 "Hg10 mi
5:55 PM71 °FThunderstorms. Fog.8 mph84%29.86 "Hg2 mi
4:53 PM69 °FHeavy rain. Cloudy.9 mph81%29.85 "Hg1 mi
3:53 PM81 °FPartly sunny.9 mph42%29.81 "Hg10 mi
2:53 PM82 °FScattered clouds.7 mph40%29.83 "Hg10 mi
1:53 PM80 °FSunny.12 mph41%29.84 "Hg10 mi
12:53 PM80 °FPassing clouds.15 mph41%29.84 "Hg10 mi
11:53 AM77 °FSunny.14 mph45%29.83 "Hg10 mi
10:53 AM74 °FSunny.13 mph53%29.83 "Hg10 mi
Weather by CustomWeather, © 2015

See weather overviewHow to use our weather pages